Hourly Weather Chagan-Uzun

Today, 19 June, Saturday

Time Temperature Precipitation Wind Pressure Humidity
00:00 +11°C° 0 mm 1 mps 626 mmHg 77%
01:00 +11°C° 0 mm 1 mps 625 mmHg 78%
02:00 +10°C° 0 mm 1 mps 625 mmHg 79%
03:00 +10°C° 0 mm 1 mps 625 mmHg 81%
04:00 +11°C° 0 mm 1 mps 625 mmHg 78%
05:00 +12°C° 0 mm 1 mps 626 mmHg 76%
06:00 +13°C° 0 mm 1 mps 626 mmHg 73%
07:00 +16°C° 0 mm 1 mps 626 mmHg 63%
08:00 +19°C° 0 mm 1 mps 627 mmHg 53%
09:00 +22°C° 0 mm 1 mps 627 mmHg 42%
10:00 +23°C° 0 mm 1 mps 627 mmHg 39%
11:00 +24°C° 0 mm 1 mps 627 mmHg 35%
12:00 +25°C° 0 mm 2 mps 627 mmHg 31%
13:00 +25°C° 0 mm 2 mps 627 mmHg 31%
14:00 +25°C° 0 mm 2 mps 626 mmHg 31%
15:00 +25°C° 0 mm 2 mps 625 mmHg 31%
16:00 +24°C° 0 mm 2 mps 625 mmHg 36%
17:00 +23°C° 0 mm 2 mps 625 mmHg 41%
18:00 +21°C° 0 mm 3 mps 624 mmHg 46%
19:00 +18°C° 0.1 mm 2 mps 624 mmHg 56%
20:00 +16°C° 0.1 mm 2 mps 623 mmHg 66%
21:00 +13°C° 0.1 mm 1 mps 623 mmHg 77%
22:00 +12°C° 0.3 mm 1 mps 623 mmHg 79%
23:00 +11°C° 0.3 mm 1 mps 623 mmHg 82%

Tomorrow, 20 June, Sunday

Time Temperature Precipitation Wind Pressure Humidity
00:00 +10°C° 0.3 mm 1 mps 623 mmHg 85%
01:00 +10°C° 0 mm 1 mps 623 mmHg 84%
02:00 +10°C° 0 mm 1 mps 623 mmHg 83%
03:00 +9°C° 0 mm 1 mps 622 mmHg 83%
04:00 +10°C° 0.1 mm 1 mps 623 mmHg 82%
05:00 +11°C° 0.1 mm 1 mps 623 mmHg 81%
06:00 +12°C° 0.1 mm 1 mps 623 mmHg 79%
07:00 +12°C° 0.4 mm 1 mps 623 mmHg 83%
08:00 +12°C° 0.4 mm 1 mps 623 mmHg 86%
09:00 +12°C° 0.4 mm 1 mps 623 mmHg 89%
10:00 +14°C° 0.4 mm 2 mps 624 mmHg 79%
11:00 +15°C° 0.4 mm 2 mps 624 mmHg 69%
12:00 +16°C° 0.4 mm 3 mps 625 mmHg 58%
13:00 +16°C° 0.2 mm 3 mps 625 mmHg 57%
14:00 +14°C° 0.2 mm 4 mps 625 mmHg 55%
15:00 +13°C° 0.2 mm 4 mps 625 mmHg 53%
16:00 +12°C° 0 mm 4 mps 626 mmHg 56%
17:00 +10°C° 0 mm 3 mps 626 mmHg 60%
18:00 +9°C° 0 mm 3 mps 626 mmHg 63%
19:00 +7°C° 0.1 mm 3 mps 626 mmHg 72%
20:00 +5°C° 0.1 mm 2 mps 626 mmHg 80%
21:00 +3°C° 0.1 mm 2 mps 627 mmHg 89%
22:00 +2°C° 0 mm 2 mps 627 mmHg 90%
23:00 +3°C° 0 mm 1 mps 627 mmHg 90%

Day after tomorrow, 21 June, Monday

Time Temperature Precipitation Wind Pressure Humidity
00:00 +2°C° 0 mm 1 mps 627 mmHg 91%
01:00 +1°C° 0 mm 1 mps 627 mmHg 91%
02:00 -1°C° 0 mm 2 mps 627 mmHg 91%
03:00 -1°C° 0 mm 2 mps 627 mmHg 91%
04:00 +1°C° 0 mm 2 mps 627 mmHg 84%
05:00 +2°C° 0 mm 2 mps 627 mmHg 77%
06:00 +3°C° 0 mm 2 mps 627 mmHg 69%
07:00 +5°C° 0 mm 2 mps 627 mmHg 59%
08:00 +8°C° 0 mm 2 mps 627 mmHg 48%
09:00 +10°C° 0 mm 2 mps 627 mmHg 38%
10:00 +13°C° 0 mm 2 mps 627 mmHg 37%
11:00 +14°C° 0 mm 2 mps 627 mmHg 35%
12:00 +16°C° 0 mm 2 mps 627 mmHg 34%
13:00 +16°C° 0 mm 2 mps 627 mmHg 34%
14:00 +17°C° 0 mm 3 mps 627 mmHg 34%
15:00 +17°C° 0 mm 3 mps 626 mmHg 33%
16:00 +16°C° 0 mm 3 mps 626 mmHg 40%
17:00 +13°C° 0 mm 3 mps 626 mmHg 47%
18:00 +13°C° 0 mm 2 mps 626 mmHg 54%
19:00 +10°C° 0 mm 2 mps 625 mmHg 62%
20:00 +9°C° 0 mm 2 mps 625 mmHg 70%
21:00 +8°C° 0 mm 1 mps 625 mmHg 77%
22:00 +7°C° 0 mm 2 mps 625 mmHg 79%
23:00 +6°C° 0 mm 2 mps 624 mmHg 80%

22 June, Tuesday

Time Temperature Precipitation Wind Pressure Humidity
00:00 +6°C° 0 mm 2 mps 624 mmHg 82%
01:00 +5°C° 0.1 mm 2 mps 623 mmHg 84%
02:00 +5°C° 0.1 mm 2 mps 623 mmHg 86%
03:00 +5°C° 0.1 mm 2 mps 623 mmHg 88%
04:00 +6°C° 0.1 mm 2 mps 623 mmHg 87%
05:00 +7°C° 0.1 mm 1 mps 623 mmHg 86%
06:00 +8°C° 0.1 mm 1 mps 623 mmHg 85%
07:00 +8°C° 0.2 mm 1 mps 623 mmHg 84%
08:00 +9°C° 0.2 mm 1 mps 624 mmHg 83%
09:00 +9°C° 0.2 mm 1 mps 624 mmHg 82%
10:00 +10°C° 0.3 mm 1 mps 625 mmHg 77%
11:00 +10°C° 0.3 mm 2 mps 625 mmHg 73%
12:00 +12°C° 0.3 mm 2 mps 625 mmHg 68%
13:00 +10°C° 0.5 mm 2 mps 625 mmHg 72%
14:00 +10°C° 0.5 mm 2 mps 625 mmHg 76%
15:00 +9°C° 0.5 mm 2 mps 626 mmHg 80%
16:00 +9°C° 0.5 mm 2 mps 626 mmHg 81%
17:00 +9°C° 0.5 mm 2 mps 626 mmHg 81%
18:00 +8°C° 0.5 mm 2 mps 626 mmHg 82%
19:00 +7°C° 0.4 mm 2 mps 626 mmHg 84%
20:00 +6°C° 0.4 mm 2 mps 627 mmHg 87%
21:00 +5°C° 0.4 mm 2 mps 627 mmHg 90%
22:00 +5°C° 0.2 mm 1 mps 627 mmHg 91%
23:00 +5°C° 0.2 mm 1 mps 627 mmHg 92%

23 June, Wednesday

Time Temperature Precipitation Wind Pressure Humidity
00:00 +4°C° 0.2 mm 1 mps 627 mmHg 93%
01:00 +4°C° 0.1 mm 1 mps 627 mmHg 93%
02:00 +3°C° 0.1 mm 1 mps 628 mmHg 93%
03:00 +3°C° 0.1 mm 1 mps 628 mmHg 93%
04:00 +3°C° 0 mm 1 mps 628 mmHg 92%
05:00 +4°C° 0 mm 1 mps 628 mmHg 90%
06:00 +4°C° 0 mm 1 mps 628 mmHg 89%
07:00 +6°C° 0 mm 1 mps 629 mmHg 79%
08:00 +7°C° 0 mm 1 mps 629 mmHg 70%
09:00 +9°C° 0 mm 1 mps 629 mmHg 61%
10:00 +10°C° 0.2 mm 1 mps 629 mmHg 56%
11:00 +12°C° 0.2 mm 1 mps 629 mmHg 51%
12:00 +13°C° 0.2 mm 1 mps 629 mmHg 45%
13:00 +13°C° 0.1 mm 1 mps 629 mmHg 43%
14:00 +14°C° 0.1 mm 2 mps 629 mmHg 40%
15:00 +14°C° 0.1 mm 2 mps 629 mmHg 38%
16:00 +14°C° 0 mm 2 mps 628 mmHg 39%
17:00 +14°C° 0 mm 2 mps 628 mmHg 40%
18:00 +13°C° 0 mm 2 mps 627 mmHg 41%
19:00 +12°C° 0 mm 2 mps 627 mmHg 46%
20:00 +9°C° 0 mm 2 mps 626 mmHg 52%
21:00 +8°C° 0 mm 2 mps 626 mmHg 58%
22:00 +7°C° 0 mm 2 mps 625 mmHg 60%
23:00 +7°C° 0 mm 2 mps 624 mmHg 62%

24 June, Thursday

Time Temperature Precipitation Wind Pressure Humidity
00:00 +6°C° 0 mm 2 mps 624 mmHg 65%
01:00 +6°C° 0 mm 2 mps 623 mmHg 69%
02:00 +5°C° 0 mm 2 mps 623 mmHg 74%
03:00 +5°C° 0 mm 2 mps 623 mmHg 79%
04:00 +5°C° 0 mm 2 mps 623 mmHg 78%
05:00 +6°C° 0 mm 2 mps 623 mmHg 78%
06:00 +6°C° 0 mm 2 mps 623 mmHg 78%
07:00 +8°C° 0 mm 2 mps 623 mmHg 71%
08:00 +10°C° 0 mm 3 mps 624 mmHg 64%
09:00 +11°C° 0 mm 3 mps 624 mmHg 58%
10:00 +12°C° 0 mm 3 mps 624 mmHg 53%
11:00 +13°C° 0 mm 3 mps 624 mmHg 48%
12:00 +14°C° 0 mm 4 mps 624 mmHg 44%
13:00 +13°C° 0.1 mm 3 mps 624 mmHg 50%
14:00 +13°C° 0.1 mm 3 mps 624 mmHg 55%
15:00 +13°C° 0.1 mm 2 mps 624 mmHg 61%
16:00 +12°C° 0.6 mm 2 mps 624 mmHg 69%
17:00 +10°C° 0.6 mm 2 mps 624 mmHg 77%
18:00 +9°C° 0.6 mm 2 mps 624 mmHg 85%
19:00 +7°C° 0.3 mm 2 mps 624 mmHg 88%
20:00 +6°C° 0.3 mm 2 mps 624 mmHg 92%
21:00 +4°C° 0.3 mm 2 mps 624 mmHg 95%
22:00 +4°C° 0.1 mm 2 mps 624 mmHg 95%
23:00 +4°C° 0.1 mm 1 mps 624 mmHg 95%
Show more

We Need Your Consent

Meteoprog and our Service Providers may store and access personal data such as cookies, device identifiers or other similar technologies on your device and process such data to personalise content and ads, as well as provide social media features and to analyse the traffic.

  • Store and/or access information on your device

    Cookies, device identifiers or other information can be stored or accessed on your device for the purposes indicated above.

  • Personalised ads and content, ad and content measurement, audience insights, and products development

    Ads and content can be personalised based on a profile. More data can be added to better personalise ads and content. Ad and content performance can be measured. Insights about the audience who saw the ads and content can be derived. Such data can be used to develop or improve user’s experience, systems and software.

By clicking ‘I Agree’ you will allow the use of indicated cookies, device identifiers, web beacons or other similar technologies. Your settings can be changed in the browser on your device.

For certain purposes, legitimate interests may be relied on, rather than consent. You can read more about this in our Privacy and Cookie Policy.